[[{"header":{"parameterUnit":"m.s-1","parameterCategory":2,"la1":30.2991,"la2":30.254,"lo1":-89.0895,"lo2":-89.0444,"dy":0.0017,"dx":0.0017,"nx":28,"ny":28,"refTime":"2025-06-04T21:00:00:Z","depth":"0","parameterNumber":2,"parameterNumberName":"U-component_of_CURRENTS"},"data":[0,0,0,0,0,0,0,0,0,0,0,0,0,0,0,0,0,0,0,0,0,0,0,0,0,0,0,0,0,0,0,0,0,0,0,0,0,0,0,0,0,0,0,0,0,0,0,0,0,0,0,0,0,0,0,0,0,0,0.2343,0.2344,0,0.2378,0.2379,0.2379,0.2407,0.2407,0.2408,0.2408,0.2472,0.2473,0.2475,0,0,0,0,0,0,0,0,0,0,0,0,0,0.2359,0.2358,0.2343,0.2344,0.2344,0.2378,0.2379,0.2379,0.2407,0.2407,0.2408,0.2408,0.2471,0.2473,0.2475,0,0,0,0,0,0,0,0,0,0,0,0,0,0.2368,0.2358,0.2343,0.2362,0.2365,0.2378,0.2379,0.2379,0.2407,0.2407,0.2408,0.2408,0.2471,0.2473,0.2475,0.2478,0,0,0.2481,0.2482,0,0,0,0,0,0,0,0,0.2368,0.2368,0.2359,0.2361,0.2364,0.2389,0.2408,0.2414,0.2407,0.239,0.2408,0.2408,0.2447,0.2451,0.2455,0.2481,0.2484,0.2482,0.2483,0.2484,0.2484,0,0,0,0,0,0,0,0.2367,0.2367,0.2357,0.236,0.2362,0.239,0.2391,0.2409,0.2416,0.2392,0.2394,0.2398,0.2448,0.2453,0.2457,0.2485,0.2482,0.2483,0.2485,0.2486,0.2555,0.2556,0,0,0,0,0,0,0.236,0.2366,0.2356,0.2358,0.2367,0.2389,0.239,0.238,0.2415,0.242,0.2398,0.24,0.2449,0.2455,0.246,0.249,0.2484,0.2486,0.2487,0.2555,0.2556,0.2556,0,0,0,0,0,0,0.236,0.2358,0.2354,0.2364,0.2366,0.2388,0.2376,0.238,0.2387,0.2419,0.2426,0.24,0.245,0.2457,0.2485,0.2492,0.2487,0.2489,0.2554,0.2555,0.2556,0.2536,0,0,0,0,0,0,0.236,0.2357,0.2349,0.2363,0.2365,0.2356,0.2376,0.2381,0.2389,0.2391,0.2423,0.243,0.2451,0.2482,0.2487,0.2495,0.249,0.2553,0.2555,0.2556,0.2536,0.2536,0.2536,0,0,0,0,0,0.236,0.234,0.2348,0.2347,0.2351,0.2356,0.2359,0.2377,0.2389,0.2385,0.2418,0.2429,0.2493,0.2484,0.249,0.2498,0.2553,0.2554,0.2556,0.2536,0.2536,0.2536,0,0,0,0,0,0,0.2336,0.2342,0.235,0.2332,0.2343,0.236,0.236,0.2374,0.2395,0.2401,0.2434,0.2442,0.2475,0.2487,0.2477,0.2523,0.2525,0.2528,0.2508,0.2509,0.2509,0.251,0.2492,0,0,0,0,0,0.2328,0.2319,0.2331,0.2317,0.232,0.2341,0.2346,0.2358,0.2379,0.2388,0.2411,0.2444,0.2484,0.2496,0.2526,0.2543,0.2603,0.2555,0.2555,0.2555,0.2561,0.2653,0.2663,0.2561,0.2561,0.2561,0,0,0.2316,0.2318,0.2314,0.2313,0.2323,0.2326,0.2344,0.2347,0.2358,0.2392,0.2411,0.2446,0.2491,0.252,0.2534,0.253,0.2621,0.2557,0.2556,0.2563,0.2656,0.2666,0.2675,0.2562,0.2561,0.2561,0,0,0.2287,0.2288,0.2273,0.2282,0.2293,0.231,0.231,0.2326,0.2341,0.2362,0.2403,0.2443,0.2477,0.252,0.2547,0.2564,0.2624,0.257,0.2565,0.2653,0.2663,0.2672,0.2785,0.2804,0.2563,0.2563,0.2563,0,0.2278,0.2259,0.227,0.2262,0.2278,0.2302,0.2302,0.2318,0.2343,0.2368,0.2364,0.2459,0.2482,0.2555,0.2556,0.2565,0.2635,0.2558,0.2654,0.2664,0.2674,0.2788,0.2809,0.2562,0.2562,0.2562,0.2562,0,0.2238,0.2234,0.2226,0.2233,0.2247,0.225,0.228,0.2295,0.2319,0.2345,0.241,0.2454,0.2517,0.2525,0.2541,0.2621,0.2658,0.265,0.2653,0.2683,0.2801,0.2824,0.2561,0.2561,0.2561,0.2561,0,0,0.2209,0.2201,0.2202,0.2216,0.2238,0.2251,0.2273,0.2313,0.2358,0.2374,0.2442,0.2486,0.252,0.2554,0.2591,0.2648,0.2769,0.2667,0.2672,0.2779,0.2998,0.2942,0.2962,0.278,0.2783,0.2785,0.3062,0,0.2186,0.2167,0.2174,0.2189,0.2199,0.2239,0.227,0.2313,0.2362,0.2429,0.2481,0.2561,0.2531,0.2586,0.2631,0.275,0.2824,0.2697,0.2953,0.2962,0.2907,0.2984,0.2781,0.3002,0.3085,0.3089,0.3091,0,0.2158,0.2157,0.2153,0.2201,0.221,0.2224,0.2313,0.2345,0.2437,0.248,0.255,0.2613,0.2714,0.2683,0.2879,0.2804,0.2895,0.297,0.2982,0.295,0.2946,0.2982,0.3041,0.2911,0.3127,0.3124,0.3121,0,0.2161,0.2158,0.2162,0.2171,0.2214,0.2238,0.2273,0.2359,0.2431,0.2536,0.262,0.2717,0.2824,0.2919,0.3042,0.2988,0.3269,0.3222,0.3267,0.3267,0.3153,0.3135,0.311,0.3369,0.3369,0.3368,0.3367,0,0.2159,0.218,0.216,0.2172,0.2226,0.2241,0.2331,0.2384,0.249,0.2608,0.2656,0.2792,0.2889,0.3047,0.3113,0.3271,0.3338,0.3297,0.3335,0.3141,0.312,0.3047,0.3011,0.3378,0.3376,0.3374,0.3372,0,0.2214,0.2177,0.2214,0.2227,0.2235,0.2291,0.2386,0.2466,0.2539,0.2706,0.2757,0.2911,0.3101,0.3204,0.3411,0.3397,0.3427,0.3571,0.3343,0.3346,0.3195,0.3166,0.3157,0.3075,0.3663,0.3664,0.3664,0,0.2262,0.2258,0.2273,0.231,0.2327,0.2389,0.2451,0.2505,0.2599,0.2795,0.2894,0.3101,0.3229,0.3479,0.35,0.3619,0.3501,0.3507,0.3333,0.318,0.3179,0.3054,0.2976,0.3208,0.3204,0.3202,0.3199,0,0.2383,0.2365,0.2399,0.2435,0.2485,0.254,0.2613,0.2674,0.2766,0.2886,0.3054,0.3156,0.3347,0.3353,0.3467,0.3496,0.3276,0.3451,0.3348,0.2868,0.2679,0.2618,0.3063,0.3173,0.3176,0.3178,0.3179,0.318,0.2506,0.2551,0.2547,0.2598,0.2635,0.2654,0.2683,0.2755,0.2851,0.2961,0.3101,0.3155,0.3197,0.3293,0.3309,0.311,0.3161,0.2973,0.2981,0.2892,0.2688,0.3082,0.318,0.3182,0.3184,0.3186,0.3188,0,0.2644,0.2652,0.2708,0.2718,0.274,0.2725,0.2769,0.2764,0.2823,0.2912,0.3,0.2945,0.2915,0.2886,0.2736,0.2625,0.2491,0.2552,0.2301,0.2273,0.2674,0.2519,0.2404,0.2404,0.2405,0.2405,0.2405,0.2405,0.2716,0.2776,0.2767,0.279,0.2782,0.2746,0.2737,0.2728,0.2731,0.2676,0.2584,0.2589,0.2545,0.247,0.2266,0.2207,0.2039,0.1949,0.2019,0.2245,0.2281,0.2316,0.2156,0.1968,0.1967,0.1443,0.1439,0.1436]},{"header":{"parameterUnit":"m.s-1","parameterCategory":2,"la1":30.2991,"la2":30.254,"lo1":-89.0895,"lo2":-89.0444,"dy":0.0017,"dx":0.0017,"nx":28,"ny":28,"refTime":"2025-06-04T21:00:00:Z","depth":"0","parameterNumber":3,"parameterNumberName":"V-component_of_CURRENTS"},"data":[0,0,0,0,0,0,0,0,0,0,0,0,0,0,0,0,0,0,0,0,0,0,0,0,0,0,0,0,0,0,0,0,0,0,0,0,0,0,0,0,0,0,0,0,0,0,0,0,0,0,0,0,0,0,0,0,0,0,0.05,0.0499,0,0.0462,0.0461,0.0461,0.0417,0.0416,0.0416,0.0415,0.033,0.0329,0.0327,0,0,0,0,0,0,0,0,0,0,0,0,0,0.0528,0.0528,0.05,0.0499,0.0499,0.0462,0.0461,0.046,0.0417,0.0416,0.0416,0.0415,0.0331,0.0329,0.0327,0,0,0,0,0,0,0,0,0,0,0,0,0,0.0505,0.0528,0.05,0.0474,0.0471,0.0462,0.0461,0.046,0.0417,0.0416,0.0415,0.0415,0.0332,0.0329,0.0326,0.0327,0,0,0.0319,0.0317,0,0,0,0,0,0,0,0,0.0506,0.0503,0.0478,0.0475,0.0472,0.0444,0.044,0.0414,0.0417,0.0436,0.0415,0.0414,0.0365,0.036,0.0354,0.0323,0.0319,0.0318,0.0317,0.0316,0.0315,0,0,0,0,0,0,0,0.0508,0.0505,0.0484,0.0478,0.0474,0.0461,0.0457,0.0435,0.0404,0.0435,0.0432,0.0429,0.0363,0.0356,0.0351,0.0318,0.0318,0.0316,0.0314,0.0313,0.0291,0.0292,0,0,0,0,0,0,0.0516,0.0506,0.0485,0.0482,0.0489,0.0462,0.0457,0.0453,0.0405,0.0398,0.043,0.0428,0.0361,0.0354,0.0348,0.0351,0.0316,0.0313,0.0312,0.029,0.0291,0.0292,0,0,0,0,0,0,0.0517,0.0514,0.0486,0.0494,0.049,0.0462,0.0458,0.0453,0.0447,0.0403,0.0394,0.043,0.036,0.0352,0.0338,0.0347,0.0312,0.031,0.0289,0.029,0.0292,0.0353,0,0,0,0,0,0,0.0518,0.0515,0.0518,0.0495,0.049,0.0489,0.0459,0.0453,0.0447,0.0443,0.04,0.0391,0.0359,0.0342,0.0335,0.0343,0.0308,0.0288,0.029,0.0291,0.035,0.0357,0.0362,0,0,0,0,0,0.0519,0.0526,0.0518,0.0516,0.0494,0.049,0.0486,0.0462,0.0448,0.0453,0.0425,0.0393,0.0348,0.0341,0.0332,0.0339,0.0287,0.0289,0.0291,0.0347,0.0355,0.0362,0,0,0,0,0,0,0.0534,0.0522,0.0513,0.0514,0.0507,0.0483,0.0485,0.047,0.0453,0.0447,0.0404,0.0394,0.0385,0.0359,0.0352,0.034,0.0313,0.0313,0.0358,0.0365,0.0371,0.0378,0.0305,0,0,0,0,0,0.0542,0.0549,0.0532,0.0535,0.0533,0.0511,0.0507,0.0493,0.0474,0.0465,0.0436,0.0408,0.0389,0.0375,0.0353,0.0347,0.0335,0.0348,0.0354,0.0359,0.0361,0.0359,0.0365,0.03,0.03,0.0299,0,0,0.055,0.0544,0.0548,0.054,0.0531,0.0537,0.0507,0.0505,0.0509,0.0459,0.0455,0.0429,0.0394,0.0387,0.038,0.0364,0.0375,0.0362,0.0367,0.0365,0.0362,0.0368,0.0374,0.0301,0.0301,0.0301,0,0,0.0571,0.0564,0.0577,0.0577,0.057,0.056,0.0564,0.0545,0.0534,0.0531,0.0497,0.048,0.045,0.0427,0.0411,0.044,0.041,0.0433,0.0465,0.0464,0.0469,0.0474,0.0481,0.0485,0.0434,0.0434,0.0434,0,0.0581,0.0591,0.058,0.0592,0.0597,0.0575,0.059,0.0581,0.056,0.0554,0.0538,0.0505,0.0469,0.0463,0.0467,0.0453,0.0451,0.0439,0.0472,0.0476,0.0479,0.0485,0.049,0.0437,0.0437,0.0437,0.0436,0,0.0607,0.0621,0.063,0.064,0.0645,0.0655,0.0644,0.0644,0.0629,0.0614,0.0607,0.057,0.055,0.0536,0.0504,0.0513,0.0505,0.0483,0.0453,0.049,0.0494,0.0497,0.0442,0.0441,0.044,0.0439,0,0,0.0611,0.0643,0.0646,0.0666,0.0672,0.068,0.0691,0.0691,0.0706,0.0679,0.0698,0.0649,0.0629,0.0611,0.0577,0.0565,0.0583,0.0534,0.0533,0.0542,0.0592,0.0564,0.0565,0.0568,0.0569,0.0569,0.059,0,0.0633,0.0675,0.0681,0.0723,0.0743,0.0738,0.0756,0.0755,0.0748,0.0764,0.0722,0.073,0.066,0.0666,0.0638,0.0604,0.0592,0.058,0.0554,0.0554,0.0525,0.0568,0.0536,0.055,0.0593,0.0594,0.0594,0,0.0648,0.0678,0.0725,0.0773,0.0781,0.0803,0.0833,0.0848,0.0854,0.0854,0.0844,0.0824,0.0806,0.0752,0.0699,0.0697,0.0646,0.0611,0.0611,0.0563,0.0531,0.0517,0.0554,0.0438,0.0598,0.0598,0.0598,0,0.0656,0.0706,0.0748,0.0763,0.0812,0.0831,0.0854,0.0869,0.0907,0.0924,0.097,0.0921,0.0948,0.0861,0.0778,0.0746,0.0732,0.0681,0.0608,0.0606,0.0562,0.0554,0.048,0.0645,0.0645,0.0644,0.0644,0,0.0674,0.0708,0.0758,0.0785,0.0847,0.086,0.0927,0.0942,0.0994,0.1075,0.1026,0.1101,0.0979,0.0957,0.0834,0.0745,0.0777,0.0624,0.0611,0.0584,0.0578,0.0459,0.0408,0.0645,0.0645,0.0645,0.0645,0,0.0681,0.071,0.077,0.0832,0.0857,0.0902,0.0999,0.1057,0.1093,0.1209,0.1234,0.1259,0.1234,0.11,0.0995,0.0853,0.0678,0.0702,0.0682,0.0664,0.0452,0.0407,0.0338,0.0291,0.0614,0.0614,0.0613,0,0.0691,0.0722,0.0813,0.0868,0.0902,0.0977,0.1047,0.1102,0.1185,0.1323,0.1401,0.1424,0.1469,0.1295,0.1041,0.0828,0.0708,0.0651,0.0563,0.0446,0.0386,0.0353,0.0317,0.0538,0.0537,0.0537,0.0536,0,0.0725,0.0756,0.0821,0.0929,0.1012,0.1112,0.1216,0.1301,0.1401,0.1519,0.1674,0.1724,0.1566,0.1353,0.1051,0.0884,0.0564,0.0626,0.0511,0.0327,0.0282,0.023,0.0527,0.0528,0.0529,0.053,0.053,0.053,0.0761,0.0819,0.091,0.1011,0.111,0.1244,0.1347,0.1484,0.165,0.1856,0.1882,0.1982,0.1631,0.1219,0.0976,0.0493,0.0531,0.0338,0.0298,0.028,0.0211,0.0494,0.0471,0.0471,0.0472,0.0472,0.0472,0,0.0812,0.0886,0.099,0.1125,0.1241,0.1281,0.1466,0.1595,0.1815,0.1995,0.2138,0.1985,0.1589,0.1135,0.0479,0.0199,0.0101,0.0065,-0.0,-0.0018,0.0233,0.0201,0.0112,0.0112,0.0112,0.0113,0.0113,0.0113,0.0848,0.0957,0.1016,0.1211,0.1309,0.1485,0.1599,0.1803,0.1957,0.2168,0.2196,0.2197,0.1782,0.074,0.0057,-0.0078,-0.0232,-0.0269,-0.0317,-0.0174,-0.0152,-0.0131,-0.0175,-0.0341,-0.0342,-0.0565,-0.0567,-0.0569]}],[{"header":{"parameterUnit":"m.s-1","parameterCategory":2,"la1":30.2991,"la2":30.254,"lo1":-89.0895,"lo2":-89.0444,"dy":0.0017,"dx":0.0017,"nx":28,"ny":28,"refTime":"2025-06-04T21:00:00:Z","depth":"2","parameterNumber":2,"parameterNumberName":"U-component_of_CURRENTS"},"data":[0,0,0,0,0,0,0,0,0,0,0,0,0,0,0,0,0,0,0,0,0,0,0,0,0,0,0,0,0,0,0,0,0,0,0,0,0,0,0,0,0,0,0,0,0,0,0,0,0,0,0,0,0,0,0,0,0,0,0.1916,0.1917,0,0.1973,0.1973,0.1973,0.1953,0.1952,0.1951,0.1951,0.1918,0.1918,0.1918,0,0,0,0,0,0,0,0,0,0,0,0,0,0.1807,0.1809,0.1916,0.1917,0.1918,0.1973,0.1973,0.1973,0.1953,0.1952,0.1951,0.195,0.1918,0.1918,0.1918,0,0,0,0,0,0,0,0,0,0,0,0,0,0.1854,0.1809,0.1916,0.1918,0.192,0.1973,0.1973,0.1973,0.1953,0.1952,0.1951,0.195,0.1918,0.1918,0.1918,0.1941,0,0,0.1917,0.1917,0,0,0,0,0,0,0,0,0.1851,0.1857,0.1917,0.1918,0.192,0.1959,0.1923,0.196,0.1954,0.1935,0.1951,0.1949,0.1928,0.1927,0.1934,0.1939,0.1938,0.1917,0.1917,0.1917,0.1917,0,0,0,0,0,0,0,0.1848,0.1855,0.1933,0.1918,0.192,0.1923,0.1928,0.193,0.1932,0.1937,0.1937,0.1951,0.1927,0.1934,0.1933,0.1937,0.1917,0.1917,0.1917,0.1917,0.1956,0.1958,0,0,0,0,0,0,0.1852,0.1852,0.1931,0.1935,0.1887,0.1927,0.1931,0.1943,0.1934,0.1933,0.1952,0.195,0.1935,0.1933,0.1931,0.1948,0.1917,0.1917,0.1917,0.1955,0.1957,0.1958,0,0,0,0,0,0,0.1849,0.1858,0.1929,0.1899,0.1909,0.193,0.1944,0.1945,0.1943,0.1948,0.1944,0.1948,0.1934,0.1932,0.1937,0.1947,0.1917,0.1916,0.1954,0.1956,0.1957,0.1987,0,0,0,0,0,0,0.1846,0.1857,0.1857,0.1899,0.1911,0.1957,0.1946,0.1948,0.1957,0.1954,0.1943,0.1939,0.1933,0.1937,0.1937,0.1946,0.1916,0.1952,0.1955,0.1957,0.1985,0.199,0.1994,0,0,0,0,0,0.1842,0.1846,0.1857,0.1866,0.1914,0.1958,0.1963,0.1971,0.1958,0.1962,0.1959,0.1939,0.1951,0.1938,0.1937,0.1946,0.1951,0.1954,0.1957,0.1983,0.1989,0.1994,0,0,0,0,0,0,0.1786,0.1847,0.1858,0.1877,0.1916,0.1956,0.196,0.197,0.1972,0.1962,0.1954,0.1951,0.1958,0.1954,0.1941,0.1967,0.1948,0.195,0.1968,0.1974,0.1978,0.195,0.1916,0,0,0,0,0,0.1782,0.1804,0.1861,0.1873,0.1894,0.1926,0.1941,0.1953,0.197,0.1969,0.1961,0.196,0.1973,0.1973,0.1975,0.1991,0.2015,0.1998,0.2002,0.2006,0.1984,0.204,0.2048,0.1967,0.1967,0.1967,0,0,0.1759,0.1799,0.1807,0.1864,0.189,0.1918,0.1929,0.1956,0.1969,0.1965,0.196,0.1971,0.198,0.1997,0.2,0.1992,0.2054,0.2009,0.2012,0.1988,0.2044,0.2052,0.2059,0.1968,0.1968,0.1968,0,0,0.1736,0.1767,0.1781,0.182,0.1874,0.1903,0.1911,0.1951,0.1957,0.1971,0.1977,0.1995,0.1995,0.2018,0.2027,0.2061,0.2074,0.2062,0.2063,0.2119,0.2126,0.2132,0.2222,0.2235,0.2067,0.2067,0.2067,0,0.1704,0.1735,0.1789,0.1819,0.1846,0.1895,0.1914,0.1938,0.1968,0.1982,0.1964,0.2,0.2004,0.2051,0.2057,0.2069,0.2111,0.2041,0.2124,0.2131,0.2136,0.2226,0.2241,0.2069,0.2069,0.2068,0.2068,0,0.17,0.1725,0.1737,0.1793,0.183,0.1856,0.1913,0.1935,0.1943,0.1968,0.2,0.202,0.2041,0.2057,0.2058,0.2111,0.2135,0.2124,0.2108,0.2146,0.224,0.2254,0.2071,0.2071,0.207,0.207,0,0,0.1617,0.1715,0.1713,0.1743,0.1821,0.1851,0.1888,0.1942,0.1969,0.1987,0.2019,0.2044,0.2058,0.2069,0.2095,0.2135,0.2228,0.2137,0.2139,0.2222,0.2382,0.229,0.2298,0.2231,0.2232,0.2234,0.245,0,0.159,0.1639,0.1695,0.1729,0.1762,0.1833,0.1867,0.1924,0.1964,0.2007,0.2049,0.2081,0.2067,0.2088,0.2125,0.2204,0.226,0.2172,0.2334,0.2339,0.2248,0.2308,0.2092,0.2253,0.2464,0.2466,0.2468,0,0.1559,0.1603,0.1638,0.1722,0.174,0.1765,0.1846,0.1886,0.1975,0.2006,0.2054,0.2092,0.2168,0.2137,0.2284,0.223,0.2293,0.2347,0.2358,0.2256,0.2271,0.2239,0.2272,0.2493,0.2491,0.2489,0.2487,0,0.1488,0.1557,0.1585,0.1613,0.1715,0.1737,0.1782,0.1874,0.1936,0.2012,0.2076,0.2143,0.223,0.228,0.2384,0.2343,0.2549,0.252,0.2507,0.2506,0.2339,0.2317,0.2607,0.2607,0.2607,0.2606,0.2605,0,0.1451,0.1469,0.1551,0.1572,0.1612,0.1686,0.1746,0.1804,0.1913,0.2015,0.2067,0.2169,0.2267,0.2396,0.2429,0.2526,0.26,0.2511,0.2542,0.2349,0.2326,0.2525,0.2513,0.2614,0.2612,0.2611,0.2609,0,0.1393,0.144,0.1481,0.1563,0.1589,0.1616,0.1742,0.1801,0.1899,0.2042,0.2078,0.225,0.2402,0.2501,0.265,0.2624,0.2691,0.2706,0.2484,0.248,0.2605,0.2592,0.2709,0.2707,0.2706,0.2704,0.2703,0,0.1386,0.1397,0.1468,0.1502,0.154,0.1603,0.1666,0.1774,0.186,0.2097,0.217,0.2367,0.2459,0.2634,0.2629,0.2679,0.2742,0.2517,0.2356,0.2591,0.2611,0.26,0.259,0.2199,0.2194,0.219,0.2187,0,0.1381,0.139,0.1433,0.1484,0.1536,0.1606,0.17,0.1764,0.193,0.2054,0.2225,0.2301,0.2466,0.2403,0.2467,0.2457,0.2466,0.243,0.2768,0.2171,0.2117,0.2134,0.214,0.215,0.2154,0.2156,0.2158,0.216,0.1386,0.1399,0.1439,0.1483,0.1538,0.1588,0.1621,0.1742,0.1852,0.1977,0.2138,0.2188,0.2227,0.2175,0.2137,0.213,0.228,0.2178,0.2189,0.2205,0.2071,0.2012,0.2006,0.2008,0.2011,0.2013,0.2015,0,0.1409,0.1415,0.1449,0.1483,0.1504,0.1551,0.164,0.1635,0.1724,0.1841,0.1916,0.1793,0.1757,0.1827,0.1733,0.1717,0.1681,0.1672,0.1608,0.1646,0.168,0.1516,0.1306,0.1304,0.1302,0.13,0,0,0.1429,0.1442,0.1436,0.1439,0.1461,0.1463,0.1489,0.1475,0.1523,0.1498,0.1525,0.1624,0.1746,0.1497,0.1461,0.1373,0.1495,0.1321,0.1891,0.1852,0.1883,0.1976,0.1767,0,0,0,0,0]},{"header":{"parameterUnit":"m.s-1","parameterCategory":2,"la1":30.2991,"la2":30.254,"lo1":-89.0895,"lo2":-89.0444,"dy":0.0017,"dx":0.0017,"nx":28,"ny":28,"refTime":"2025-06-04T21:00:00:Z","depth":"2","parameterNumber":3,"parameterNumberName":"V-component_of_CURRENTS"},"data":[0,0,0,0,0,0,0,0,0,0,0,0,0,0,0,0,0,0,0,0,0,0,0,0,0,0,0,0,0,0,0,0,0,0,0,0,0,0,0,0,0,0,0,0,0,0,0,0,0,0,0,0,0,0,0,0,0,0,-0.0226,-0.0227,0,-0.0326,-0.0327,-0.0328,-0.0415,-0.0416,-0.0417,-0.0417,-0.0531,-0.0533,-0.0536,0,0,0,0,0,0,0,0,0,0,0,0,0,-0.0188,-0.0188,-0.0226,-0.0227,-0.0228,-0.0325,-0.0327,-0.0329,-0.0415,-0.0416,-0.0417,-0.0418,-0.053,-0.0533,-0.0536,0,0,0,0,0,0,0,0,0,0,0,0,0,-0.024,-0.0188,-0.0226,-0.0282,-0.0287,-0.0325,-0.0327,-0.0329,-0.0415,-0.0416,-0.0417,-0.0418,-0.053,-0.0533,-0.0536,-0.0534,0,0,-0.0547,-0.0548,0,0,0,0,0,0,0,0,-0.0236,-0.0241,-0.0272,-0.0278,-0.0284,-0.0357,-0.0355,-0.0398,-0.0415,-0.0369,-0.0418,-0.0419,-0.0472,-0.048,-0.0499,-0.0539,-0.0544,-0.0547,-0.0549,-0.0551,-0.0552,0,0,0,0,0,0,0,-0.0233,-0.0238,-0.0268,-0.0273,-0.0281,-0.0328,-0.0336,-0.0364,-0.0415,-0.0373,-0.0379,-0.0386,-0.0476,-0.0496,-0.0503,-0.0546,-0.0547,-0.055,-0.0552,-0.0554,-0.0616,-0.0615,0,0,0,0,0,0,-0.021,-0.0234,-0.0265,-0.0271,-0.026,-0.0327,-0.0336,-0.0334,-0.0414,-0.0427,-0.0385,-0.039,-0.0489,-0.0499,-0.0507,-0.052,-0.0551,-0.0554,-0.0556,-0.0616,-0.0615,-0.0615,0,0,0,0,0,0,-0.0209,-0.0212,-0.0261,-0.0254,-0.0263,-0.0325,-0.0323,-0.0336,-0.0365,-0.0423,-0.0436,-0.0402,-0.0491,-0.0502,-0.0538,-0.0525,-0.0555,-0.0559,-0.0616,-0.0616,-0.0615,-0.0539,0,0,0,0,0,0,-0.0207,-0.021,-0.021,-0.0251,-0.0262,-0.0274,-0.0322,-0.0337,-0.0366,-0.0374,-0.0441,-0.0453,-0.0492,-0.0532,-0.0541,-0.053,-0.0561,-0.0617,-0.0616,-0.0615,-0.0542,-0.0536,-0.053,0,0,0,0,0,-0.0205,-0.019,-0.0209,-0.0213,-0.0256,-0.0273,-0.0282,-0.0334,-0.0365,-0.0367,-0.0421,-0.0452,-0.0534,-0.0535,-0.0545,-0.0535,-0.0617,-0.0616,-0.0615,-0.0544,-0.0537,-0.0531,0,0,0,0,0,0,-0.0177,-0.0199,-0.022,-0.0214,-0.0239,-0.0286,-0.0297,-0.033,-0.0375,-0.0388,-0.0449,-0.0463,-0.049,-0.0522,-0.0521,-0.0551,-0.0579,-0.058,-0.0522,-0.0515,-0.0509,-0.0483,-0.0564,0,0,0,0,0,-0.0167,-0.0161,-0.0192,-0.0189,-0.0198,-0.0248,-0.0266,-0.0296,-0.0337,-0.036,-0.041,-0.0459,-0.0491,-0.0511,-0.0547,-0.0561,-0.0578,-0.0561,-0.0555,-0.055,-0.0536,-0.0557,-0.0551,-0.0612,-0.0612,-0.0612,0,0,-0.0157,-0.0168,-0.0167,-0.0183,-0.0211,-0.0207,-0.0263,-0.028,-0.0282,-0.0362,-0.0391,-0.0442,-0.0492,-0.0512,-0.0525,-0.0538,-0.0538,-0.0549,-0.0544,-0.0532,-0.0555,-0.0549,-0.0544,-0.0611,-0.0611,-0.0612,0,0,-0.0119,-0.014,-0.012,-0.0132,-0.0158,-0.0183,-0.0183,-0.023,-0.0258,-0.0287,-0.0344,-0.0383,-0.0443,-0.047,-0.0491,-0.0472,-0.0509,-0.049,-0.0438,-0.0458,-0.0453,-0.0449,-0.0446,-0.0442,-0.0485,-0.0485,-0.0485,0,-0.0109,-0.0086,-0.0118,-0.0101,-0.0106,-0.0164,-0.0143,-0.0172,-0.0228,-0.0243,-0.0285,-0.0369,-0.0416,-0.0427,-0.0428,-0.0456,-0.0472,-0.0459,-0.0449,-0.0446,-0.0443,-0.0441,-0.0437,-0.0481,-0.0481,-0.0482,-0.0482,0,-0.0053,-0.0041,-0.0029,-0.0023,-0.0031,-0.0025,-0.0058,-0.0077,-0.0126,-0.0162,-0.0202,-0.0273,-0.0323,-0.0343,-0.0384,-0.0383,-0.0402,-0.044,-0.0462,-0.0431,-0.0432,-0.043,-0.0475,-0.0477,-0.0478,-0.0479,0,0,-0.002,0.0007,0.0008,0.0023,0.001,0.001,0.0015,0.0002,0.0001,-0.0068,-0.0073,-0.0146,-0.0205,-0.0232,-0.029,-0.0309,-0.0304,-0.0364,-0.0367,-0.0351,-0.0336,-0.0325,-0.0322,-0.035,-0.0349,-0.0349,-0.0339,0,0.0028,0.0084,0.0083,0.0125,0.0145,0.0111,0.0123,0.0099,0.0058,0.0037,-0.0037,-0.0074,-0.0155,-0.0187,-0.0218,-0.0282,-0.0299,-0.0302,-0.0377,-0.0378,-0.0364,-0.0319,-0.0294,-0.0281,-0.0337,-0.0337,-0.0336,0,0.0075,0.0108,0.0163,0.0197,0.0203,0.0217,0.0218,0.0221,0.0186,0.0152,0.01,0.0031,-0.0009,-0.0091,-0.017,-0.0173,-0.0247,-0.0297,-0.0299,-0.0312,-0.0362,-0.0326,-0.0276,-0.0333,-0.0334,-0.0334,-0.0334,0,0.01,0.0158,0.0204,0.0214,0.0245,0.0258,0.0265,0.0246,0.0256,0.0217,0.022,0.0139,0.0118,0.0009,-0.0105,-0.0145,-0.0178,-0.025,-0.0302,-0.0301,-0.0304,-0.0304,-0.0303,-0.0303,-0.0303,-0.0303,-0.0303,0,0.0141,0.0173,0.0218,0.0238,0.0289,0.0291,0.0328,0.0321,0.0329,0.0369,0.0273,0.0294,0.0139,0.0091,-0.0047,-0.0142,-0.0136,-0.027,-0.0294,-0.0275,-0.0273,-0.0348,-0.0353,-0.0303,-0.0303,-0.0303,-0.0303,0,0.0142,0.0178,0.0229,0.0279,0.0298,0.0322,0.0374,0.0408,0.0407,0.0465,0.046,0.0425,0.0374,0.0233,0.0096,-0.0036,-0.0153,-0.0195,-0.0145,-0.0164,-0.028,-0.0282,-0.0257,-0.0256,-0.0256,-0.0255,-0.0255,0,0.0144,0.0173,0.0245,0.0285,0.0305,0.0352,0.0399,0.0428,0.0482,0.0555,0.0603,0.0581,0.0585,0.0408,0.0179,-0.0021,-0.0081,-0.014,-0.0223,-0.0247,-0.0273,-0.0276,-0.0278,-0.0192,-0.0191,-0.019,-0.019,0,0.0144,0.0167,0.022,0.0302,0.0361,0.0438,0.0514,0.0585,0.0656,0.0748,0.0872,0.0885,0.071,0.0531,0.0248,0.0092,-0.0111,-0.0133,-0.0158,-0.0208,-0.0186,-0.0212,-0.0216,-0.0184,-0.0184,-0.0185,-0.0185,-0.0185,0.0137,0.0176,0.0253,0.0332,0.0412,0.0535,0.0634,0.0766,0.0921,0.1077,0.1061,0.1101,0.0823,0.0485,0.0236,-0.0028,-0.0052,-0.0173,-0.0175,-0.0178,-0.0173,-0.0151,-0.014,-0.0141,-0.0141,-0.0141,-0.0141,0,0.0136,0.0201,0.0281,0.0405,0.0514,0.0544,0.0727,0.0882,0.1131,0.1215,0.1318,0.1085,0.0859,0.0564,0.0177,-0.008,-0.0122,-0.0148,-0.0156,-0.0159,-0.0163,-0.0159,-0.0122,-0.0122,-0.0123,-0.0123,0,0,0.014,0.0225,0.0285,0.0472,0.0567,0.0755,0.0882,0.1139,0.1278,0.1413,0.1406,0.1299,0.0944,0.0658,0.0317,0.0118,0.0041,0.0075,0.0084,0.0113,0.0113,-0.0155,-0.015,0,0,0,0,0]}],[{"header":{"parameterUnit":"m.s-1","parameterCategory":2,"la1":30.2991,"la2":30.254,"lo1":-89.0895,"lo2":-89.0444,"dy":0.0017,"dx":0.0017,"nx":28,"ny":28,"refTime":"2025-06-04T21:00:00:Z","depth":"4","parameterNumber":2,"parameterNumberName":"U-component_of_CURRENTS"},"data":[0,0,0,0,0,0,0,0,0,0,0,0,0,0,0,0,0,0,0,0,0,0,0,0,0,0,0,0,0,0,0,0,0,0,0,0,0,0,0,0,0,0,0,0,0,0,0,0,0,0,0,0,0,0,0,0,0,0,0.0584,0.0585,0,0.0653,0.0654,0.0655,0.0708,0.0709,0.0709,0.071,0.0765,0.0766,0.0767,0,0,0,0,0,0,0,0,0,0,0,0,0,0.0492,0.0494,0.0584,0.0585,0.0586,0.0653,0.0654,0.0655,0.0708,0.0709,0.0709,0.071,0.0765,0.0766,0.0767,0,0,0,0,0,0,0,0,0,0,0,0,0,0.0543,0.0494,0.0584,0.0621,0.0625,0.0653,0.0654,0.0655,0.0708,0.0709,0.0709,0.071,0.0764,0.0766,0.0767,0.076,0,0,0.0772,0.0772,0,0,0,0,0,0,0,0,0.0541,0.0547,0.0614,0.0618,0.0623,0.0673,0.0642,0.0689,0.0708,0.0676,0.071,0.0711,0.0732,0.0737,0.0748,0.0763,0.0765,0.0772,0.0773,0.0773,0.0774,0,0,0,0,0,0,0,0.0537,0.0544,0.0611,0.0615,0.062,0.0632,0.064,0.0651,0.0698,0.0679,0.0683,0.0691,0.0735,0.0746,0.0749,0.0766,0.0772,0.0773,0.0774,0.0774,0.0845,0.0846,0,0,0,0,0,0,0.0529,0.0541,0.0609,0.0613,0.0583,0.0633,0.0642,0.0656,0.0699,0.0706,0.069,0.0693,0.0743,0.0747,0.0751,0.0822,0.0773,0.0774,0.0775,0.0844,0.0845,0.0846,0,0,0,0,0,0,0.0526,0.0534,0.0606,0.0578,0.0588,0.0633,0.0649,0.0657,0.069,0.0707,0.0715,0.0717,0.0744,0.0749,0.0762,0.0821,0.0775,0.0776,0.0843,0.0844,0.0846,0.0913,0,0,0,0,0,0,0.0524,0.0533,0.0546,0.0578,0.059,0.0635,0.0648,0.0658,0.0692,0.0697,0.0733,0.0738,0.0745,0.0759,0.0763,0.0822,0.0778,0.0841,0.0843,0.0845,0.0909,0.0917,0.0923,0,0,0,0,0,0.052,0.0539,0.0547,0.0555,0.0605,0.0635,0.0643,0.0676,0.0693,0.0709,0.072,0.0738,0.0775,0.076,0.0764,0.0826,0.084,0.0843,0.0845,0.0906,0.0915,0.0922,0,0,0,0,0,0,0.051,0.0547,0.0556,0.0586,0.0612,0.0645,0.0669,0.0686,0.071,0.0722,0.0732,0.0737,0.0788,0.0778,0.0761,0.085,0.0819,0.0822,0.0864,0.0872,0.0879,0.0885,0.0779,0,0,0,0,0,0.051,0.0535,0.0565,0.059,0.0606,0.0638,0.0658,0.0682,0.0704,0.0719,0.0739,0.0763,0.0798,0.0808,0.0836,0.0859,0.0848,0.0905,0.0912,0.0918,0.0925,0.0946,0.0956,0.0853,0.0853,0.0853,0,0,0.051,0.0537,0.055,0.0589,0.0616,0.0633,0.0654,0.0695,0.0721,0.0718,0.0762,0.0793,0.081,0.0857,0.0879,0.0855,0.0937,0.0921,0.0926,0.093,0.0949,0.096,0.0968,0.0855,0.0855,0.0854,0,0,0.0517,0.0551,0.0567,0.059,0.0633,0.0651,0.0665,0.0708,0.0745,0.0784,0.0801,0.0846,0.0889,0.0912,0.093,0.0979,0.0982,0.1006,0.1037,0.1058,0.1067,0.1074,0.1057,0.1062,0.0997,0.0998,0.0998,0,0.0512,0.0548,0.0576,0.0596,0.0625,0.0657,0.0682,0.0714,0.0756,0.0798,0.081,0.0904,0.0921,0.0975,0.1003,0.0999,0.0997,0.1008,0.1068,0.1075,0.1082,0.1062,0.1067,0.1001,0.1001,0.1,0.1,0,0.0524,0.0558,0.0577,0.0609,0.0633,0.0673,0.071,0.075,0.0806,0.0851,0.0945,0.0968,0.1024,0.1049,0.1048,0.1114,0.1091,0.1085,0.1049,0.1096,0.1072,0.1076,0.1006,0.1005,0.1004,0.1003,0,0,0.05,0.0573,0.0579,0.0601,0.0659,0.0673,0.0729,0.0798,0.0842,0.092,0.0986,0.1072,0.111,0.1129,0.114,0.1156,0.1202,0.1147,0.1146,0.1132,0.1229,0.1167,0.1165,0.1215,0.1216,0.1217,0.1187,0,0.0508,0.055,0.0592,0.0628,0.065,0.071,0.0754,0.0818,0.0889,0.0951,0.1032,0.1105,0.1132,0.117,0.1198,0.1216,0.122,0.1209,0.1183,0.1181,0.1124,0.1171,0.1222,0.119,0.1191,0.1192,0.1192,0,0.0492,0.0535,0.0584,0.0651,0.067,0.0702,0.0787,0.0836,0.0936,0.1002,0.1093,0.1145,0.1219,0.1215,0.1275,0.1274,0.1261,0.1254,0.1253,0.1177,0.1129,0.1137,0.1199,0.1199,0.1198,0.1198,0.1197,0,0.0443,0.0515,0.0565,0.0588,0.0669,0.0725,0.078,0.0872,0.0929,0.104,0.1088,0.1186,0.1243,0.1268,0.1297,0.1295,0.1322,0.1309,0.1226,0.1219,0.1252,0.1244,0.132,0.132,0.132,0.1321,0.1321,0,0.043,0.0466,0.0554,0.0584,0.0647,0.0712,0.0787,0.0863,0.0958,0.1025,0.112,0.1168,0.1267,0.1299,0.13,0.1288,0.1333,0.124,0.122,0.1277,0.1272,0.1253,0.1246,0.1319,0.132,0.132,0.132,0,0.0376,0.044,0.0485,0.0589,0.0629,0.0674,0.0793,0.083,0.0943,0.1021,0.1068,0.1183,0.1249,0.1288,0.1321,0.129,0.1275,0.124,0.1284,0.1264,0.1147,0.1143,0.1153,0.1151,0.1149,0.1147,0.1146,0,0.0359,0.0374,0.0471,0.0502,0.057,0.0649,0.0699,0.0823,0.0867,0.1021,0.1045,0.1152,0.1215,0.1201,0.1257,0.1241,0.1221,0.1191,0.1192,0.1157,0.1136,0.1135,0.1134,0.1143,0.1143,0.1142,0.1142,0,0.0313,0.0346,0.0388,0.0453,0.0514,0.0566,0.0662,0.0692,0.0833,0.0922,0.1015,0.1069,0.1122,0.1169,0.1163,0.1148,0.1214,0.1172,0.1175,0.1176,0.1145,0.1126,0.1127,0.1135,0.1136,0.1137,0.1137,0,0.0266,0.0275,0.0322,0.038,0.0439,0.0489,0.0548,0.0623,0.0693,0.0878,0.0906,0.1015,0.1119,0.1117,0.1115,0.1108,0.1092,0.1049,0.1058,0.1066,0.1057,0.1007,0.0945,0,0,0,0,0,0.0221,0.0225,0.0248,0.0304,0.0356,0.0407,0.0514,0.0573,0.0711,0.0752,0.0838,0.0892,0.0954,0.1002,0.0976,0.1056,0.1074,0.102,0.1024,0.11,0.1108,0.1108,0,0,0,0,0,0,0.0187,0.0204,0.0215,0.0226,0.0255,0.0312,0.0385,0.0485,0.0519,0.0669,0.07,0.0815,0.0869,0.0944,0.0947,0.096,0.0942,0.1087,0.1084,0.1096,0.1103,0.1109,0.1112,0,0,0,0,0]},{"header":{"parameterUnit":"m.s-1","parameterCategory":2,"la1":30.2991,"la2":30.254,"lo1":-89.0895,"lo2":-89.0444,"dy":0.0017,"dx":0.0017,"nx":28,"ny":28,"refTime":"2025-06-04T21:00:00:Z","depth":"4","parameterNumber":3,"parameterNumberName":"V-component_of_CURRENTS"},"data":[0,0,0,0,0,0,0,0,0,0,0,0,0,0,0,0,0,0,0,0,0,0,0,0,0,0,0,0,0,0,0,0,0,0,0,0,0,0,0,0,0,0,0,0,0,0,0,0,0,0,0,0,0,0,0,0,0,0,0.0161,0.0161,0,0.013,0.013,0.0129,0.0106,0.0106,0.0105,0.0105,0.0036,0.0034,0.0033,0,0,0,0,0,0,0,0,0,0,0,0,0,0.018,0.018,0.0161,0.0161,0.016,0.013,0.013,0.0129,0.0106,0.0106,0.0105,0.0105,0.0037,0.0035,0.0033,0,0,0,0,0,0,0,0,0,0,0,0,0,0.0162,0.018,0.0161,0.0146,0.0144,0.013,0.013,0.0129,0.0106,0.0106,0.0105,0.0105,0.0037,0.0035,0.0032,0.002,0,0,0.0024,0.0023,0,0,0,0,0,0,0,0,0.0163,0.0161,0.0148,0.0147,0.0145,0.0122,0.0111,0.0091,0.0106,0.0119,0.0105,0.0105,0.0062,0.0058,0.0051,0.0017,0.0014,0.0024,0.0023,0.0022,0.0021,0,0,0,0,0,0,0,0.0165,0.0162,0.0148,0.0148,0.0146,0.0134,0.0131,0.0107,0.0091,0.0118,0.0117,0.0115,0.0061,0.0054,0.005,0.0013,0.0024,0.0022,0.002,0.0019,-0.0036,-0.0036,0,0,0,0,0,0,0.0171,0.0164,0.0149,0.0147,0.0155,0.0134,0.0131,0.0129,0.0092,0.0087,0.0115,0.0114,0.0059,0.0053,0.0047,0.0029,0.0022,0.0019,0.0018,-0.0036,-0.0036,-0.0036,0,0,0,0,0,0,0.0172,0.017,0.015,0.0155,0.0152,0.0134,0.0132,0.0129,0.0124,0.009,0.0084,0.0115,0.0058,0.0051,0.0029,0.0026,0.0018,0.0016,-0.0036,-0.0036,-0.0036,-0.0007,0,0,0,0,0,0,0.0173,0.0171,0.0173,0.0156,0.0152,0.0142,0.0132,0.0128,0.0124,0.0122,0.0088,0.0081,0.0057,0.0033,0.0027,0.0022,0.0014,-0.0037,-0.0036,-0.0036,-0.0008,-0.0006,-0.0004,0,0,0,0,0,0.0173,0.0178,0.0173,0.0171,0.0155,0.0143,0.0139,0.0125,0.0124,0.0121,0.0101,0.0082,0.0029,0.0032,0.0024,0.0018,-0.0037,-0.0036,-0.0036,-0.0009,-0.0007,-0.0004,0,0,0,0,0,0,0.0183,0.0175,0.017,0.017,0.0158,0.0139,0.0138,0.013,0.0113,0.0113,0.0083,0.0074,0.0051,0.0034,0.0038,0.0003,-0.0007,-0.0008,0.0016,0.0019,0.0021,0.0032,0.0012,0,0,0,0,0,0.0188,0.0191,0.0177,0.0176,0.0174,0.0158,0.0153,0.0143,0.0126,0.0119,0.0095,0.0071,0.0046,0.0033,0.0007,-0.0009,-0.0038,-0.0017,-0.0015,-0.0014,-0.0009,-0.0056,-0.0058,-0.0036,-0.0036,-0.0036,0,0,0.019,0.0188,0.0188,0.0179,0.0171,0.0164,0.0154,0.0148,0.0143,0.0113,0.0099,0.0074,0.0043,0.0021,0.001,0.0007,-0.0036,-0.0013,-0.0012,-0.0008,-0.0056,-0.0058,-0.006,-0.0036,-0.0036,-0.0036,0,0,0.0193,0.0196,0.0197,0.0191,0.0183,0.0173,0.0174,0.0157,0.0151,0.0137,0.0111,0.0088,0.0055,0.0029,0.0013,0.0011,-0.0026,0.0004,0.0025,-0.0021,-0.0024,-0.0026,-0.0068,-0.0075,0.0008,0.0008,0.0008,0,0.0193,0.0197,0.0194,0.0192,0.0191,0.018,0.0176,0.0169,0.0146,0.0142,0.0137,0.0084,0.0058,0.0027,0.003,0.0015,-0.0015,0.0018,-0.0019,-0.0022,-0.0025,-0.0068,-0.0076,0.0009,0.0009,0.0009,0.0009,0,0.0192,0.0199,0.0201,0.0197,0.0192,0.0192,0.0182,0.0179,0.0174,0.0161,0.0136,0.0101,0.0072,0.0058,0.0047,0.0014,-0.0002,-0.0014,-0.0025,-0.0026,-0.0071,-0.0079,0.0011,0.0011,0.001,0.001,0,0,0.0179,0.0198,0.0198,0.0207,0.02,0.0197,0.0195,0.0187,0.0187,0.0166,0.0153,0.0118,0.0103,0.0085,0.0058,0.0024,-0.0021,0.0005,0.0002,-0.0036,-0.0122,-0.0099,-0.0107,-0.0041,-0.0042,-0.0043,-0.0147,0,0.0178,0.0194,0.0195,0.0203,0.0212,0.0208,0.021,0.0202,0.019,0.0175,0.0145,0.0125,0.0112,0.0101,0.0064,-0.0001,-0.0041,0.0008,-0.0116,-0.012,-0.0099,-0.0115,-0.0047,-0.0153,-0.0155,-0.0156,-0.0157,0,0.017,0.0189,0.0207,0.0227,0.0229,0.0234,0.0238,0.0239,0.0219,0.0209,0.0182,0.0151,0.0107,0.0095,-0.0013,0.002,-0.0043,-0.0095,-0.0101,-0.0093,-0.0112,-0.0152,-0.0173,-0.0172,-0.0171,-0.017,-0.0169,0,0.0173,0.0192,0.0216,0.0222,0.0241,0.0255,0.0267,0.0257,0.0267,0.0238,0.0228,0.0163,0.0139,0.005,-0.0041,-0.0031,-0.0171,-0.0176,-0.022,-0.022,-0.0223,-0.0219,-0.026,-0.026,-0.0259,-0.0259,-0.0259,0,0.0176,0.0194,0.0231,0.0248,0.0287,0.0284,0.0314,0.0316,0.0308,0.0318,0.0259,0.0238,0.0129,0.004,-0.005,-0.0157,-0.0181,-0.0219,-0.0245,-0.0208,-0.0202,-0.0229,-0.0224,-0.0263,-0.0262,-0.0261,-0.0261,0,0.0183,0.0202,0.0241,0.0279,0.0298,0.0334,0.0376,0.0392,0.0377,0.0383,0.0379,0.0293,0.0185,0.0056,-0.0097,-0.0156,-0.0272,-0.0308,-0.0262,-0.0284,-0.029,-0.0283,-0.0365,-0.0365,-0.0365,-0.0365,-0.0365,0,0.0194,0.0216,0.028,0.0319,0.0349,0.04,0.0439,0.0444,0.0455,0.0419,0.0419,0.0318,0.0249,0.0038,-0.0092,-0.0277,-0.0294,-0.0353,-0.0312,-0.0284,-0.0301,-0.0294,-0.0286,-0.0365,-0.0365,-0.0365,-0.0365,0,0.0223,0.0248,0.0286,0.0369,0.0426,0.0481,0.0529,0.0538,0.0536,0.0514,0.0453,0.0347,0.0217,0.0055,-0.0093,-0.0222,-0.0312,-0.0354,-0.0354,-0.0316,-0.0286,-0.0301,-0.0293,-0.0365,-0.0365,-0.0365,-0.0365,0,0.0252,0.0287,0.0342,0.0414,0.0489,0.0547,0.0564,0.057,0.0576,0.0525,0.0506,0.036,0.0273,0.0083,-0.0055,-0.0179,-0.0197,-0.022,-0.0228,-0.0229,-0.015,-0.0089,-0.0133,0,0,0,0,0,0.0282,0.0318,0.0382,0.0458,0.0531,0.0573,0.0615,0.0615,0.0604,0.0574,0.0539,0.0419,0.0225,0.0125,0.0006,-0.0051,-0.0219,-0.0192,-0.0249,-0.0366,-0.0366,-0.0292,0,0,0,0,0,0,0.0302,0.0359,0.0382,0.0482,0.0537,0.0615,0.0646,0.0636,0.0603,0.0571,0.0458,0.0406,0.02,0.0291,0.0007,-0.0032,-0.0078,-0.0292,-0.0293,-0.0366,-0.0366,-0.0366,-0.029,0,0,0,0,0]}]]